Content
SEND FEEDBACK

Daily
Averages
Monthly
Summary
Thailand

BANGKOK, THAILAND


Home > Asia > Thailand
Elevation: 66 feet     Latitude: 13 44N     Longitude: 100 34E

WEATHER
 
SELECT A DAY
Number of Records: 235,328;   Date Range: 7/1/96 - 7/26/14
 
SHARE

PRINT THIS DATA

[ ← Previous Day ]
WEATHER ALMANAC - OCTOBER 15, 2013
[ Next Day → ]
[ °C ]   °F
Weather ElementAverageHighLow
Temperature87.7 °F95 °F (1:00 pm)82 °F (7:00 am)
Dewpoint75.8 °F78.8 °F (9:00 am)73.4 °F (12:00 pm)
Humidity68.2 %84 % (5:00 am)44 % (1:00 pm)
Barometer29.73 in29.80 in (9:30 am)29.65 in (3:00 pm)
Wind Speed6.1 mph12.7 mph (12:00 pm)
Weather ElementAverage
Visibility5.1 mi
Wind DirectionW (266.7 °)

Weather ElementTotal
Precipitation---
Cooling Degree Days23.5 (Base 65)
Growing Degree Days38.5 (Base 50)
Averaged from 49 records on October 15, 2013
WEATHER CONDITIONS BREAKOUT
WIND DIRECTION BREAKOUT
WEATHER BY HOUR - OCTOBER 15, 2013
[ °C ]   °F
Local TimeTemperatureDewpointHumidityBarometerVisibilityWind DirectionWind SpeedGust SpeedPrecipitationEventsConditions
12:30 AM87.8 °F77.0 °F70 %29.74 in4.3 miWest (260°)4.6 mph
1:00 AM87.0 °F76.0 °F63 %29.76 in4.0 miWest (270°)4.6 mphMist
1:00 AM86.0 °F77.0 °F74 %29.74 in4.3 miWest (270°)4.6 mph
1:30 AM86.0 °F77.0 °F74 %29.74 in4.3 miWest (270°)3.5 mph
2:00 AM86.0 °F75.2 °F70 %29.74 in4.3 miWest (260°)4.6 mph
2:30 AM86.0 °F75.2 °F70 %29.71 in4.3 miWest (270°)5.8 mph
3:00 AM84.2 °F77.0 °F79 %29.71 in5.0 miWest (280°)6.9 mph
3:30 AM84.2 °F77.0 °F79 %29.71 in5.0 miWest (280°)6.9 mphMostly Cloudy
4:00 AM84.2 °F77.0 °F79 %29.71 in5.0 miWest (280°)6.9 mphMostly Cloudy
4:30 AM84.2 °F77.0 °F79 %29.71 in5.0 miWest (280°)6.9 mphMostly Cloudy
5:00 AM82.4 °F77.0 °F84 %29.71 in5.0 miWest (280°)5.8 mphMostly Cloudy
5:30 AM82.4 °F77.0 °F84 %29.71 in5.0 miWest (280°)5.8 mphMostly Cloudy
6:00 AM82.4 °F75.2 °F79 %29.71 in5.6 miWest (280°)5.8 mphMostly Cloudy
6:30 AM82.4 °F75.2 °F79 %29.74 in5.6 miWest (280°)3.5 mphMostly Cloudy
7:00 AM82.0 °F76.0 °F78 %29.76 in6.0 miWest (280°)4.6 mphMist
7:00 AM82.4 °F77.0 °F84 %29.74 in5.6 miWest (280°)4.6 mphMostly Cloudy
7:30 AM82.4 °F77.0 °F84 %29.74 in5.6 miWest (280°)4.6 mphMostly Cloudy
8:00 AM84.2 °F77.0 °F79 %29.77 in5.6 miWest (280°)4.6 mphMostly Cloudy
8:30 AM84.2 °F77.0 °F79 %29.77 in5.6 miNNW (340°)4.6 mphMostly Cloudy
9:00 AM86.0 °F78.8 °F79 %29.77 in5.6 miNorth (350°)8.1 mphMostly Cloudy
9:30 AM87.8 °F77.0 °F70 %29.80 in5.6 miNNW (340°)6.9 mphMostly Cloudy
10:00 AM89.6 °F77.0 °F66 %29.80 in5.6 miNNW (340°)6.9 mphMostly Cloudy
10:30 AM89.6 °F77.0 °F66 %29.77 in5.6 miNNW (330°)6.9 mphMostly Cloudy
11:00 AM91.4 °F77.0 °F63 %29.77 in5.6 miNNW (340°)9.2 mphMostly Cloudy
11:30 AM91.4 °F75.2 °F59 %29.77 in5.0 miNorth (350°)11.5 mphMostly Cloudy
12:00 PM93.2 °F73.4 °F52 %29.74 in5.0 miNNW (330°)12.7 mphMostly Cloudy
12:30 PM93.2 °F75.2 °F56 %29.74 in5.0 miNNW (340°)9.2 mphMostly Cloudy
1:00 PM94.0 °F74.0 °F44 %29.74 in5.0 miNNW (340°)10.4 mphHaze
1:00 PM95.0 °F75.2 °F53 %29.71 in5.0 miNNW (340°)10.4 mphMostly Cloudy
1:30 PM95.0 °F73.4 °F49 %29.71 in5.0 miNorth (360°)9.2 mphMostly Cloudy
2:00 PM95.0 °F73.4 °F49 %29.68 in5.0 miNorth (10°)11.5 mphMostly Cloudy
2:30 PM95.0 °F73.4 °F49 %29.68 in5.0 miNorth (350°)8.1 mphMostly Cloudy
3:00 PM95.0 °F75.2 °F53 %29.65 in5.0 miNorth (350°)10.4 mphMostly Cloudy
3:30 PM95.0 °F75.2 °F53 %29.65 in5.0 miNNW (330°)8.1 mphMostly Cloudy
4:00 PM93.2 °F75.2 °F56 %29.65 in5.0 miNNW (340°)9.2 mphMostly Cloudy
4:30 PM93.2 °F75.2 °F56 %29.65 in5.0 miNNW (340°)8.1 mphMostly Cloudy
5:00 PM91.4 °F75.2 °F59 %29.68 in5.0 miNNW (330°)6.9 mphMostly Cloudy
5:30 PM91.4 °F75.2 °F59 %29.68 in4.3 miNNW (330°)8.1 mphMostly Cloudy
7:00 PM83.0 °F75.0 °F70 %29.71 in6.0 miNW (310°)5.8 mphThunderstormThunderstorm
7:00 PM84.2 °F75.2 °F74 %29.71 in6.2 miNW (310°)5.8 mphThunderstormThunderstorm
7:30 PM84.2 °F75.2 °F74 %29.71 in5.6 miSW (220°)2.3 mphMostly Cloudy
8:00 PM86.0 °F73.4 °F66 %29.71 in5.6 miCalmMostly Cloudy
8:30 PM86.0 °F73.4 °F66 %29.74 in5.6 miWSW (240°)3.5 mphMostly Cloudy
9:00 PM86.0 °F75.2 °F70 %29.74 in5.0 miWSW (250°)3.5 mphMostly Cloudy
9:30 PM86.0 °F75.2 °F70 %29.71 in5.0 miCalmMostly Cloudy
10:00 PM86.0 °F77.0 °F74 %29.74 in4.3 miCalmMostly Cloudy
10:30 PM86.0 °F77.0 °F74 %29.74 in4.3 miWNW (300°)4.6 mphMostly Cloudy
11:00 PM86.0 °F77.0 °F74 %29.74 in4.3 miCalmMostly Cloudy
11:30 PM86.0 °F77.0 °F74 %29.74 in4.3 miCalmMostly Cloudy
Hourly data recorded from VTBD, located miles away from Bangkok, Thailand







STORIES FROM OUR PARTNERS